This demonstration page uses our WeatherBlox Daily Observations layout. Learn more.

Left ArrowRight Arrow

Hourly Observations for September 7, 2021

Temp ( °F °C ) Dew Point ( °F °C ) Humidity (%) Winds ( mph kmh ) Pressure ( in mb ) Visibility ( mi km ) Precip ( " mm )
12:54 am 00:54 Clear 74 23.3 64 17.8 71 71 SSW 9 15 29.78 1008 10 16 N/A
1:54 am 01:54 Clear 71 21.7 63 17.2 76 76 S 9 15 29.77 1008 10 16 N/A
2:54 am 02:54 Clear 72 22.2 62 16.7 71 71 SSW 8 13 29.77 1008 10 16 N/A
3:54 am 03:54 Clear 71 21.7 62 16.7 73 73 SSW 8 13 29.76 1008 10 16 N/A
4:54 am 04:54 Clear 70 21.1 61 16.1 73 73 SSW 8 13 29.76 1008 10 16 N/A
5:54 am 05:54 Clear 68 20 61 16.1 78 78 SSE 5 7 29.75 1008 10 16 N/A
6:54 am 06:54 Clear 65 18.3 61 16.1 87 87 S 6 9 29.76 1008 10 16 N/A
7:54 am 07:54 Sunny 69 20.6 61 16.1 76 76 WSW 3 6 29.79 1009 10 16 N/A
8:54 am 08:54 Sunny 73 22.8 62 16.7 69 69 W 8 13 29.82 1010 10 16 N/A
10:54 am 10:54 Sunny 82 27.8 60 15.6 47 47 N 18 30 29.85 1011 10 16 N/A
11:54 am 11:54 Sunny 83 28.3 59 15 44 44 N 20 31 29.88 1012 10 16 N/A
12:54 pm 12:54 Sunny 83 28.3 59 15 44 44 N 21 33 29.90 1013 10 16 N/A
1:54 pm 13:54 Sunny 82 27.8 58 14.4 44 44 N 18 30 29.93 1013 10 16 N/A
2:54 pm 14:54 Sunny 83 28.3 53 11.7 36 36 N 20 31 29.92 1013 10 16 N/A
3:54 pm 15:54 Sunny 82 27.8 55 12.8 40 40 N 17 28 29.93 1014 10 16 N/A
4:54 pm 16:54 Sunny 81 27.2 52 11.1 37 37 N 16 26 29.93 1014 10 16 N/A
5:54 pm 17:54 Sunny 80 26.7 51 10.6 37 37 N 15 24 29.94 1014 10 16 N/A
6:54 pm 18:54 Sunny 78 25.6 50 10 37 37 NNW 14 22 29.95 1014 10 16 N/A
7:54 pm 19:54 Clear 74 23.3 52 11.1 46 46 NNW 7 11 29.95 1014 10 16 N/A
8:54 pm 20:54 Clear 71 21.7 53 11.7 53 53 NNW 6 9 29.97 1015 10 16 N/A
9:54 pm 21:54 Clear 68 20 53 11.7 59 59 NW 7 11 29.99 1016 10 16 N/A
10:54 pm 22:54 Clear 60 15.6 53 11.7 78 78 NNW 6 9 30.00 1016 10 16 N/A
11:54 pm 23:54 Clear 58 14.4 53 11.7 84 84 N 6 9 30.01 1016 10 16 N/A

Powered by AerisWeather